Location: Bishop�s Knoyle
(51.0728°N, 2.1714°W)
Time: 01:14:37
(UTC+00:00)

Nauka - Pass Details

Date: 26 September 2021
Orbit: 417 x 423 km, 51.6° (Epoch: 26 October)

Event Time Altitude Azimuth Distance (km) Brightness Sun altitude
Rises 18:55:56 0° 270° (W) 2,364 ? -10.0°
Reaches altitude 10° 18:58:01 10° 271° (W) 1,501 ? -10.3°
Maximum altitude 19:01:24 79° 359° (N) 433 ? -10.8°
Enters shadow 19:03:52 17° 85° (E) 1,141 ? -11.2°
